Retour au catalogue

FLOCK 4H 7

ActifScienceSSO
NORAD 66710·PAYLOAD·🇺🇸 United States

Lancé Nov 28, 2025 depuis Vandenberg Space Force Base

Loading…

Prochains Passages (prochaines 24 heures)

TLE

FraisSource: CelesTrak SupGP

Époque: Sep 14, 2026, 12:45 UTC

1 66710C 25276AW  26257.53136574  .00009207  00000+0  41559-3 0  2579
2 66710  97.4113 329.6136 0003834  85.8203 129.4591 15.21049978    19

Suivez FLOCK 4H 7 en temps réel avec AllMySat

Download on the App Store